| time (UTC) | temp C | wind direction | speed KPH | gust KPH | rain 1hr cm | rain 24hr cm | rain mn cm | humidity % | barometer mb |
| 20260508220522 | 16 | 173 | 8.0 | 19.3 | 0.00 | 0.10 | 0.10 | 62 | 1006.3 |
| 20260508220408 | 16 | 172 | 8.0 | 19.3 | 0.00 | 0.10 | 0.10 | 62 | 1006.3 |
| 20260508220002 | 16 | 185 | 6.4 | 19.3 | 0.00 | 0.10 | 0.10 | 61 | 1006.4 |
| 20260508215908 | 16 | 185 | 6.4 | 19.3 | 0.00 | 0.10 | 0.10 | 61 | 1006.5 |
| 20260508215502 | 15 | 172 | 4.8 | 9.7 | 0.00 | 0.10 | 0.10 | 64 | 1006.5 |
| 20260508215408 | 15 | 166 | 3.2 | 9.7 | 0.00 | 0.10 | 0.10 | 64 | 1006.6 |
| 20260508215001 | 15 | 106 | 3.2 | 8.0 | 0.00 | 0.10 | 0.10 | 68 | 1006.4 |
| 20260508214907 | 15 | 98 | 3.2 | 6.4 | 0.00 | 0.10 | 0.10 | 71 | 1006.5 |
| 20260508214501 | 15 | 91 | 4.8 | 9.7 | 0.00 | 0.10 | 0.10 | 72 | 1006.6 |
| 20260508214407 | 15 | 90 | 4.8 | 9.7 | 0.00 | 0.10 | 0.10 | 72 | 1006.7 |
| 20260508214002 | 15 | 88 | 4.8 | 9.7 | 0.00 | 0.10 | 0.10 | 72 | 1006.7 |
| 20260508213907 | 15 | 88 | 4.8 | 9.7 | 0.00 | 0.10 | 0.10 | 73 | 1006.7 |
| 20260508213501 | 14 | 88 | 3.2 | 9.7 | 0.00 | 0.10 | 0.10 | 72 | 1006.8 |
| 20260508213407 | 14 | 88 | 3.2 | 9.7 | 0.00 | 0.10 | 0.10 | 73 | 1006.8 |
| 20260508213002 | 14 | 89 | 3.2 | 9.7 | 0.00 | 0.10 | 0.10 | 76 | 1006.7 |
| 20260508212907 | 13 | 89 | 3.2 | 9.7 | 0.00 | 0.10 | 0.10 | 77 | 1006.7 |
| 20260508212501 | 13 | 95 | 3.2 | 11.3 | 0.00 | 0.10 | 0.10 | 77 | 1006.9 |
| 20260508212407 | 13 | 95 | 4.8 | 11.3 | 0.00 | 0.10 | 0.10 | 77 | 1006.9 |
| 20260508212001 | 13 | 99 | 6.4 | 12.9 | 0.00 | 0.10 | 0.10 | 77 | 1006.9 |
| 20260508211907 | 13 | 100 | 6.4 | 12.9 | 0.00 | 0.10 | 0.10 | 77 | 1006.9 |
| 20260508211502 | 13 | 100 | 6.4 | 12.9 | 0.00 | 0.10 | 0.10 | 76 | 1006.9 |
| 20260508211407 | 14 | 101 | 4.8 | 12.9 | 0.00 | 0.10 | 0.10 | 75 | 1006.9 |
| 20260508211022 | 14 | 98 | 4.8 | 12.9 | 0.00 | 0.10 | 0.10 | 76 | 1007.0 |
| 20260508210907 | 13 | 97 | 6.4 | 12.9 | 0.00 | 0.10 | 0.10 | 77 | 1007.0 |
| 20260508210501 | 13 | 95 | 8.0 | 14.5 | 0.00 | 0.10 | 0.10 | 78 | 1006.9 |
| 20260508210407 | 13 | 95 | 8.0 | 14.5 | 0.00 | 0.10 | 0.10 | 78 | 1006.9 |
| 20260508210002 | 13 | 97 | 9.7 | 14.5 | 0.00 | 0.10 | 0.10 | 78 | 1007.0 |
| 20260508205907 | 13 | 97 | 9.7 | 14.5 | 0.00 | 0.10 | 0.10 | 78 | 1007.0 |
| 20260508205501 | 13 | 99 | 9.7 | 14.5 | 0.00 | 0.10 | 0.10 | 77 | 1007.1 |
| 20260508205407 | 13 | 99 | 8.0 | 14.5 | 0.00 | 0.10 | 0.10 | 77 | 1007.1 |
| 20260508205001 | 13 | 98 | 9.7 | 14.5 | 0.00 | 0.10 | 0.10 | 76 | 1007.1 |
| 20260508204907 | 13 | 99 | 9.7 | 16.1 | 0.00 | 0.10 | 0.10 | 76 | 1007.1 |
| 20260508204502 | 13 | 98 | 9.7 | 16.1 | 0.00 | 0.10 | 0.10 | 75 | 1007.1 |
| 20260508204407 | 13 | 97 | 9.7 | 16.1 | 0.00 | 0.10 | 0.10 | 75 | 1007.2 |
| 20260508204002 | 13 | 97 | 8.0 | 16.1 | 0.00 | 0.10 | 0.10 | 74 | 1007.2 |
| 20260508203907 | 13 | 95 | 6.4 | 14.5 | 0.00 | 0.10 | 0.10 | 76 | 1007.3 |
| 20260508203522 | 13 | 97 | 6.4 | 14.5 | 0.00 | 0.10 | 0.10 | 75 | 1007.3 |
| 20260508203407 | 13 | 97 | 6.4 | 11.3 | 0.00 | 0.10 | 0.10 | 76 | 1007.3 |
| 20260508203002 | 13 | 95 | 6.4 | 11.3 | 0.00 | 0.10 | 0.10 | 76 | 1007.4 |
| 20260508202906 | 13 | 95 | 6.4 | 11.3 | 0.00 | 0.10 | 0.10 | 75 | 1007.4 |
| 20260508202501 | 13 | 93 | 6.4 | 11.3 | 0.00 | 0.10 | 0.10 | 75 | 1007.5 |
| 20260508202406 | 13 | 93 | 4.8 | 11.3 | 0.00 | 0.10 | 0.10 | 76 | 1007.5 |
| 20260508202001 | 13 | 94 | 6.4 | 14.5 | 0.00 | 0.10 | 0.10 | 76 | 1007.6 |
| 20260508201906 | 13 | 96 | 6.4 | 14.5 | 0.00 | 0.10 | 0.10 | 76 | 1007.6 |
| 20260508201502 | 13 | 98 | 8.0 | 14.5 | 0.00 | 0.10 | 0.10 | 78 | 1007.7 |
| 20260508201406 | 13 | 98 | 8.0 | 14.5 | 0.00 | 0.10 | 0.10 | 77 | 1007.8 |
| 20260508201001 | 13 | 102 | 9.7 | 12.9 | 0.00 | 0.10 | 0.10 | 75 | 1007.8 |
| 20260508200906 | 13 | 102 | 9.7 | 14.5 | 0.00 | 0.10 | 0.10 | 75 | 1007.8 |
| 20260508200501 | 13 | 101 | 11.3 | 16.1 | 0.00 | 0.10 | 0.10 | 74 | 1007.9 |
| 20260508200406 | 13 | 102 | 11.3 | 16.1 | 0.00 | 0.10 | 0.10 | 73 | 1007.9 |
| 20260508200002 | 13 | 99 | 11.3 | 17.7 | 0.00 | 0.10 | 0.10 | 72 | 1008.0 |
| 20260508195906 | 13 | 98 | 11.3 | 17.7 | 0.00 | 0.10 | 0.10 | 72 | 1008.0 |
| 20260508195502 | 13 | 97 | 9.7 | 17.7 | 0.00 | 0.10 | 0.10 | 71 | 1008.0 |
| 20260508195406 | 13 | 96 | 9.7 | 17.7 | 0.00 | 0.10 | 0.10 | 70 | 1008.0 |
| 20260508195001 | 13 | 96 | 9.7 | 16.1 | 0.00 | 0.10 | 0.10 | 70 | 1008.1 |
| 20260508194906 | 13 | 96 | 9.7 | 16.1 | 0.00 | 0.10 | 0.10 | 71 | 1008.1 |
| 20260508194502 | 13 | 96 | 8.0 | 16.1 | 0.00 | 0.10 | 0.10 | 71 | 1008.4 |
| 20260508194406 | 13 | 97 | 8.0 | 16.1 | 0.00 | 0.10 | 0.10 | 71 | 1008.4 |
| 20260508194002 | 13 | 97 | 8.0 | 14.5 | 0.00 | 0.10 | 0.10 | 69 | 1008.5 |
| 20260508193905 | 13 | 97 | 8.0 | 12.9 | 0.00 | 0.10 | 0.10 | 69 | 1008.5 |
| 20260508193522 | 13 | 95 | 8.0 | 12.9 | 0.00 | 0.10 | 0.10 | 70 | 1008.5 |
| 20260508193405 | 13 | 94 | 8.0 | 12.9 | 0.00 | 0.10 | 0.10 | 70 | 1008.6 |
| 20260508193001 | 13 | 94 | 8.0 | 12.9 | 0.00 | 0.10 | 0.10 | 67 | 1008.7 |
| 20260508192905 | 13 | 93 | 8.0 | 12.9 | 0.00 | 0.10 | 0.10 | 67 | 1008.7 |
| 20260508192502 | 13 | 94 | 6.4 | 12.9 | 0.00 | 0.10 | 0.10 | 66 | 1008.9 |
| 20260508192405 | 13 | 94 | 8.0 | 12.9 | 0.00 | 0.10 | 0.10 | 66 | 1008.9 |
| 20260508192002 | 13 | 93 | 8.0 | 12.9 | 0.00 | 0.10 | 0.10 | 66 | 1008.8 |
| 20260508191905 | 13 | 93 | 6.4 | 12.9 | 0.00 | 0.10 | 0.10 | 66 | 1008.9 |
| 20260508191501 | 13 | 93 | 8.0 | 12.9 | 0.00 | 0.10 | 0.10 | 65 | 1008.9 |
| 20260508191405 | 13 | 93 | 6.4 | 12.9 | 0.00 | 0.10 | 0.10 | 64 | 1008.8 |
| 20260508191002 | 13 | 93 | 6.4 | 11.3 | 0.00 | 0.10 | 0.10 | 67 | 1009.0 |
| 20260508190905 | 13 | 94 | 8.0 | 12.9 | 0.00 | 0.10 | 0.10 | 66 | 1009.0 |
| 20260508190502 | 13 | 96 | 8.0 | 12.9 | 0.00 | 0.10 | 0.10 | 66 | 1009.0 |
| 20260508190405 | 13 | 98 | 8.0 | 12.9 | 0.00 | 0.10 | 0.10 | 67 | 1009.0 |
| 20260508190001 | 13 | 102 | 8.0 | 12.9 | 0.00 | 0.10 | 0.10 | 67 | 1009.1 |
| 20260508185905 | 13 | 101 | 8.0 | 12.9 | 0.00 | 0.10 | 0.10 | 67 | 1009.0 |
| 20260508185523 | 13 | 101 | 8.0 | 12.9 | 0.00 | 0.10 | 0.10 | 66 | 1009.0 |
| 20260508185405 | 13 | 101 | 8.0 | 12.9 | 0.00 | 0.10 | 0.10 | 68 | 1009.0 |
| 20260508185002 | 13 | 98 | 8.0 | 14.5 | 0.00 | 0.10 | 0.10 | 65 | 1009.1 |
| 20260508184905 | 13 | 99 | 8.0 | 14.5 | 0.00 | 0.10 | 0.10 | 65 | 1009.1 |
| 20260508184501 | 13 | 101 | 8.0 | 14.5 | 0.00 | 0.10 | 0.10 | 63 | 1009.1 |
| 20260508184404 | 13 | 101 | 8.0 | 14.5 | 0.00 | 0.10 | 0.10 | 63 | 1009.1 |
| 20260508184023 | 13 | 103 | 8.0 | 12.9 | 0.00 | 0.10 | 0.10 | 66 | 1009.1 |
| 20260508183904 | 13 | 103 | 8.0 | 12.9 | 0.00 | 0.10 | 0.10 | 65 | 1009.1 |
| 20260508183502 | 13 | 102 | 8.0 | 12.9 | 0.00 | 0.10 | 0.10 | 66 | 1009.1 |
| 20260508183404 | 13 | 102 | 8.0 | 12.9 | 0.00 | 0.10 | 0.10 | 67 | 1009.1 |
| 20260508183002 | 13 | 100 | 8.0 | 12.9 | 0.00 | 0.10 | 0.10 | 67 | 1009.2 |
| 20260508182904 | 13 | 101 | 8.0 | 12.9 | 0.00 | 0.10 | 0.10 | 68 | 1009.2 |
| 20260508182502 | 13 | 102 | 8.0 | 12.9 | 0.00 | 0.10 | 0.10 | 68 | 1009.3 |
| 20260508182404 | 12 | 102 | 8.0 | 12.9 | 0.00 | 0.10 | 0.10 | 67 | 1009.3 |
| 20260508182002 | 13 | 101 | 8.0 | 12.9 | 0.00 | 0.10 | 0.10 | 67 | 1009.4 |
| 20260508181904 | 13 | 100 | 6.4 | 12.9 | 0.00 | 0.10 | 0.10 | 69 | 1009.4 |
| 20260508181502 | 12 | 97 | 8.0 | 12.9 | 0.00 | 0.10 | 0.10 | 68 | 1009.4 |
| 20260508181404 | 12 | 97 | 8.0 | 12.9 | 0.00 | 0.10 | 0.10 | 68 | 1009.5 |
| 20260508181002 | 12 | 97 | 8.0 | 12.9 | 0.00 | 0.10 | 0.10 | 68 | 1009.6 |
| 20260508180904 | 12 | 97 | 9.7 | 14.5 | 0.00 | 0.10 | 0.10 | 68 | 1009.5 |
| 20260508180523 | 12 | 96 | 9.7 | 14.5 | 0.00 | 0.10 | 0.10 | 67 | 1009.4 |
| 20260508180404 | 13 | 95 | 8.0 | 14.5 | 0.00 | 0.10 | 0.10 | 65 | 1009.5 |
| 20260508180002 | 13 | 102 | 8.0 | 14.5 | 0.00 | 0.10 | 0.10 | 65 | 1009.6 |
| 20260508175904 | 13 | 106 | 6.4 | 11.3 | 0.00 | 0.10 | 0.10 | 65 | 1009.7 |
| 20260508175502 | 13 | 118 | 6.4 | 11.3 | 0.00 | 0.10 | 0.10 | 65 | 1009.7 |
| 20260508175404 | 13 | 119 | 4.8 | 11.3 | 0.00 | 0.10 | 0.10 | 64 | 1009.8 |
| 20260508175002 | 13 | 106 | 4.8 | 11.3 | 0.00 | 0.10 | 0.10 | 66 | 1009.8 |
| 20260508174904 | 13 | 100 | 4.8 | 11.3 | 0.00 | 0.10 | 0.10 | 66 | 1009.8 |
| 20260508174502 | 13 | 87 | 4.8 | 9.7 | 0.00 | 0.10 | 0.10 | 66 | 1010.0 |
| 20260508174404 | 13 | 87 | 4.8 | 8.0 | 0.00 | 0.10 | 0.10 | 65 | 1009.9 |
| 20260508174001 | 13 | 94 | 4.8 | 12.9 | 0.00 | 0.10 | 0.10 | 63 | 1010.1 |
| 20260508173903 | 13 | 94 | 4.8 | 12.9 | 0.00 | 0.10 | 0.10 | 65 | 1010.1 |
| 20260508173502 | 13 | 97 | 6.4 | 12.9 | 0.00 | 0.10 | 0.10 | 64 | 1010.2 |
| 20260508173403 | 13 | 97 | 6.4 | 12.9 | 0.00 | 0.10 | 0.10 | 64 | 1010.2 |
| 20260508173002 | 13 | 91 | 6.4 | 11.3 | 0.00 | 0.10 | 0.10 | 66 | 1010.2 |
| 20260508172903 | 13 | 91 | 6.4 | 11.3 | 0.00 | 0.10 | 0.10 | 64 | 1010.2 |
| 20260508172501 | 13 | 92 | 4.8 | 11.3 | 0.00 | 0.10 | 0.10 | 64 | 1010.4 |
| 20260508172403 | 13 | 94 | 6.4 | 12.9 | 0.00 | 0.10 | 0.10 | 64 | 1010.4 |
| 20260508172023 | 13 | 95 | 6.4 | 14.5 | 0.00 | 0.10 | 0.10 | 66 | 1010.4 |
| 20260508171903 | 13 | 97 | 6.4 | 14.5 | 0.00 | 0.10 | 0.10 | 66 | 1010.4 |
| 20260508171502 | 13 | 97 | 6.4 | 14.5 | 0.00 | 0.10 | 0.10 | 64 | 1010.5 |
| 20260508171403 | 13 | 98 | 4.8 | 14.5 | 0.00 | 0.10 | 0.10 | 65 | 1010.5 |
| 20260508171001 | 13 | 104 | 4.8 | 11.3 | 0.00 | 0.10 | 0.10 | 64 | 1010.5 |
| 20260508170903 | 13 | 107 | 4.8 | 11.3 | 0.00 | 0.10 | 0.10 | 65 | 1010.5 |
| 20260508170502 | 13 | 126 | 4.8 | 8.0 | 0.00 | 0.10 | 0.10 | 67 | 1010.5 |
| 20260508170403 | 13 | 130 | 4.8 | 8.0 | 0.00 | 0.10 | 0.10 | 66 | 1010.5 |
| 20260508170002 | 13 | 142 | 3.2 | 8.0 | 0.00 | 0.10 | 0.10 | 66 | 1010.5 |
| 20260508165903 | 13 | 143 | 3.2 | 8.0 | 0.00 | 0.10 | 0.10 | 66 | 1010.5 |
| 20260508165501 | 13 | 140 | 4.8 | 12.9 | 0.00 | 0.10 | 0.10 | 67 | 1010.6 |
| 20260508165403 | 13 | 137 | 4.8 | 12.9 | 0.00 | 0.10 | 0.10 | 65 | 1010.7 |
| 20260508165002 | 13 | 129 | 4.8 | 12.9 | 0.00 | 0.10 | 0.10 | 65 | 1010.7 |
| 20260508164903 | 13 | 125 | 4.8 | 12.9 | 0.00 | 0.10 | 0.10 | 66 | 1010.8 |
| 20260508164502 | 13 | 109 | 4.8 | 11.3 | 0.00 | 0.10 | 0.10 | 67 | 1010.8 |
| 20260508164403 | 13 | 105 | 4.8 | 11.3 | 0.00 | 0.10 | 0.10 | 68 | 1010.9 |
| 20260508164002 | 13 | 97 | 4.8 | 9.7 | 0.00 | 0.10 | 0.10 | 68 | 1011.0 |
| 20260508163903 | 12 | 101 | 4.8 | 8.0 | 0.00 | 0.10 | 0.10 | 69 | 1010.9 |
| 20260508163503 | 12 | 111 | 4.8 | 9.7 | 0.00 | 0.10 | 0.10 | 70 | 1011.0 |
| 20260508163403 | 12 | 118 | 4.8 | 9.7 | 0.00 | 0.10 | 0.10 | 70 | 1011.1 |
| 20260508163002 | 12 | 120 | 4.8 | 9.7 | 0.00 | 0.10 | 0.10 | 70 | 1011.1 |
| 20260508162903 | 12 | 115 | 4.8 | 9.7 | 0.00 | 0.10 | 0.10 | 70 | 1011.1 |
| 20260508162501 | 12 | 115 | 4.8 | 11.3 | 0.00 | 0.10 | 0.10 | 70 | 1011.2 |
| 20260508162402 | 12 | 116 | 4.8 | 11.3 | 0.00 | 0.10 | 0.10 | 71 | 1011.2 |
| 20260508162001 | 11 | 131 | 6.4 | 12.9 | 0.00 | 0.10 | 0.10 | 72 | 1011.1 |
| 20260508161902 | 11 | 135 | 6.4 | 12.9 | 0.00 | 0.10 | 0.10 | 72 | 1011.0 |
| 20260508161502 | 11 | 135 | 6.4 | 12.9 | 0.00 | 0.10 | 0.10 | 69 | 1011.1 |
| 20260508161402 | 11 | 135 | 6.4 | 12.9 | 0.00 | 0.10 | 0.10 | 70 | 1011.1 |
| 20260508161001 | 12 | 128 | 4.8 | 12.9 | 0.00 | 0.10 | 0.10 | 71 | 1011.1 |
| 20260508160902 | 12 | 126 | 4.8 | 12.9 | 0.00 | 0.10 | 0.10 | 71 | 1011.2 |
| 20260508160502 | 12 | 129 | 4.8 | 12.9 | 0.00 | 0.10 | 0.10 | 70 | 1011.1 |
| 20260508160402 | 12 | 131 | 4.8 | 11.3 | 0.00 | 0.10 | 0.10 | 71 | 1011.1 |
| 20260508160002 | 12 | 137 | 4.8 | 12.9 | 0.00 | 0.10 | 0.10 | 73 | 1011.1 |
| 20260508155902 | 12 | 137 | 4.8 | 12.9 | 0.00 | 0.10 | 0.10 | 74 | 1011.1 |
| 20260508155502 | 11 | 137 | 6.4 | 12.9 | 0.00 | 0.10 | 0.10 | 75 | 1011.1 |
| 20260508155402 | 11 | 135 | 6.4 | 12.9 | 0.00 | 0.10 | 0.10 | 74 | 1011.1 |
| 20260508155001 | 11 | 128 | 4.8 | 12.9 | 0.00 | 0.10 | 0.10 | 73 | 1011.2 |
| 20260508154902 | 12 | 127 | 4.8 | 12.9 | 0.00 | 0.10 | 0.10 | 73 | 1011.2 |
| 20260508154502 | 12 | 115 | 4.8 | 12.9 | 0.00 | 0.10 | 0.10 | 73 | 1011.2 |
| 20260508154402 | 11 | 113 | 4.8 | 9.7 | 0.00 | 0.10 | 0.10 | 74 | 1011.2 |
| 20260508154002 | 11 | 111 | 4.8 | 12.9 | 0.00 | 0.10 | 0.10 | 73 | 1011.2 |
| 20260508153902 | 11 | 113 | 4.8 | 12.9 | 0.00 | 0.10 | 0.10 | 72 | 1011.2 |
| 20260508153501 | 11 | 102 | 4.8 | 12.9 | 0.00 | 0.10 | 0.10 | 73 | 1011.2 |
| 20260508153402 | 11 | 102 | 4.8 | 12.9 | 0.00 | 0.10 | 0.10 | 73 | 1011.2 |
| 20260508153002 | 11 | 102 | 4.8 | 11.3 | 0.00 | 0.10 | 0.10 | 73 | 1011.2 |
| 20260508152902 | 11 | 100 | 4.8 | 11.3 | 0.00 | 0.10 | 0.10 | 75 | 1011.2 |
| 20260508152502 | 11 | 110 | 4.8 | 9.7 | 0.00 | 0.10 | 0.10 | 74 | 1011.3 |
| 20260508152402 | 11 | 108 | 4.8 | 9.7 | 0.00 | 0.10 | 0.10 | 74 | 1011.3 |
| 20260508152002 | 11 | 100 | 4.8 | 9.7 | 0.00 | 0.10 | 0.10 | 75 | 1011.4 |
| 20260508151901 | 11 | 98 | 3.2 | 9.7 | 0.00 | 0.10 | 0.10 | 75 | 1011.4 |
| 20260508151502 | 11 | 104 | 4.8 | 11.3 | 0.00 | 0.10 | 0.10 | 74 | 1011.4 |
| 20260508151401 | 11 | 109 | 3.2 | 11.3 | 0.00 | 0.10 | 0.10 | 74 | 1011.3 |
| 20260508151002 | 11 | 126 | 4.8 | 14.5 | 0.00 | 0.10 | 0.10 | 77 | 1011.3 |
| 20260508150901 | 11 | 127 | 4.8 | 14.5 | 0.00 | 0.10 | 0.10 | 77 | 1011.4 |
| 20260508150503 | 11 | 120 | 4.8 | 14.5 | 0.00 | 0.10 | 0.10 | 76 | 1011.4 |
| 20260508150401 | 11 | 121 | 4.8 | 14.5 | 0.00 | 0.10 | 0.10 | 76 | 1011.3 |
| 20260508150023 | 11 | 120 | 4.8 | 11.3 | 0.00 | 0.10 | 0.10 | 76 | 1011.4 |
| 20260508145901 | 11 | 123 | 4.8 | 11.3 | 0.00 | 0.10 | 0.10 | 78 | 1011.4 |
| 20260508145502 | 11 | 135 | 4.8 | 12.9 | 0.00 | 0.10 | 0.10 | 77 | 1011.4 |
| 20260508145401 | 10 | 136 | 4.8 | 12.9 | 0.00 | 0.10 | 0.10 | 77 | 1011.4 |
| 20260508145002 | 10 | 138 | 4.8 | 12.9 | 0.00 | 0.10 | 0.10 | 76 | 1011.5 |
| 20260508144901 | 10 | 140 | 4.8 | 12.9 | 0.00 | 0.10 | 0.10 | 77 | 1011.6 |
| 20260508144502 | 10 | 141 | 4.8 | 12.9 | 0.00 | 0.10 | 0.10 | 76 | 1011.6 |
| 20260508144401 | 11 | 141 | 4.8 | 12.9 | 0.00 | 0.10 | 0.10 | 76 | 1011.6 |
| 20260508144002 | 10 | 143 | 4.8 | 9.7 | 0.00 | 0.10 | 0.10 | 78 | 1011.6 |
| 20260508143901 | 10 | 143 | 4.8 | 9.7 | 0.00 | 0.10 | 0.10 | 77 | 1011.6 |
| 20260508143501 | 10 | 146 | 4.8 | 11.3 | 0.00 | 0.10 | 0.10 | 77 | 1011.6 |
| 20260508143401 | 10 | 146 | 4.8 | 11.3 | 0.00 | 0.10 | 0.10 | 77 | 1011.6 |
| 20260508143002 | 10 | 147 | 4.8 | 11.3 | 0.00 | 0.10 | 0.10 | 76 | 1011.6 |
| 20260508142901 | 10 | 147 | 4.8 | 11.3 | 0.00 | 0.10 | 0.10 | 76 | 1011.6 |
| 20260508142502 | 10 | 146 | 3.2 | 11.3 | 0.00 | 0.10 | 0.10 | 76 | 1011.7 |
| 20260508142400 | 10 | 145 | 3.2 | 11.3 | 0.00 | 0.10 | 0.10 | 76 | 1011.7 |
| 20260508142023 | 10 | 143 | 4.8 | 11.3 | 0.00 | 0.10 | 0.10 | 76 | 1011.8 |
| 20260508141900 | 10 | 144 | 4.8 | 11.3 | 0.00 | 0.10 | 0.10 | 77 | 1011.8 |
| 20260508141503 | 10 | 144 | 4.8 | 9.7 | 0.00 | 0.10 | 0.10 | 74 | 1011.8 |
| 20260508141400 | 10 | 144 | 4.8 | 11.3 | 0.00 | 0.10 | 0.10 | 75 | 1011.8 |
| 20260508141023 | 10 | 143 | 4.8 | 11.3 | 0.00 | 0.10 | 0.10 | 73 | 1011.8 |
| 20260508140900 | 10 | 143 | 4.8 | 11.3 | 0.00 | 0.10 | 0.10 | 73 | 1011.8 |
| 20260508140502 | 10 | 143 | 3.2 | 11.3 | 0.00 | 0.10 | 0.10 | 73 | 1011.7 |
| 20260508140400 | 10 | 144 | 3.2 | 9.7 | 0.00 | 0.10 | 0.10 | 73 | 1011.8 |
| 20260508140002 | 10 | 143 | 3.2 | 6.4 | 0.00 | 0.10 | 0.10 | 75 | 1011.8 |
| 20260508135900 | 10 | 143 | 3.2 | 6.4 | 0.00 | 0.10 | 0.10 | 75 | 1011.9 |
| 20260508135503 | 10 | 141 | 3.2 | 6.4 | 0.00 | 0.10 | 0.10 | 73 | 1011.8 |
| 20260508135400 | 10 | 141 | 3.2 | 6.4 | 0.00 | 0.10 | 0.10 | 74 | 1011.9 |
| 20260508135002 | 10 | 139 | 3.2 | 6.4 | 0.00 | 0.10 | 0.10 | 75 | 1011.9 |
| 20260508134900 | 10 | 139 | 1.6 | 6.4 | 0.00 | 0.10 | 0.10 | 75 | 1011.9 |
| 20260508134502 | 10 | 139 | 3.2 | 8.0 | 0.00 | 0.10 | 0.10 | 75 | 1011.9 |
| 20260508134400 | 10 | 140 | 3.2 | 8.0 | 0.00 | 0.10 | 0.10 | 75 | 1011.9 |
| 20260508134002 | 10 | 141 | 3.2 | 8.0 | 0.00 | 0.10 | 0.10 | 74 | 1012.0 |
| 20260508133900 | 10 | 141 | 3.2 | 8.0 | 0.00 | 0.10 | 0.10 | 74 | 1012.0 |
| 20260508133502 | 10 | 142 | 1.6 | 4.8 | 0.00 | 0.10 | 0.10 | 76 | 1011.9 |
| 20260508133400 | 10 | 142 | 1.6 | 4.8 | 0.00 | 0.10 | 0.10 | 75 | 1011.9 |
| 20260508133002 | 10 | 143 | 1.6 | 4.8 | 0.00 | 0.10 | 0.10 | 76 | 1012.0 |
| 20260508132900 | 10 | 143 | 1.6 | 4.8 | 0.00 | 0.10 | 0.10 | 75 | 1012.0 |
| 20260508132502 | 10 | 143 | 1.6 | 4.8 | 0.00 | 0.10 | 0.10 | 76 | 1011.9 |
| 20260508132400 | 10 | 143 | 1.6 | 4.8 | 0.00 | 0.10 | 0.10 | 76 | 1011.9 |
| 20260508132003 | 9 | 143 | 1.6 | 6.4 | 0.00 | 0.10 | 0.10 | 76 | 1011.9 |
| 20260508131900 | 9 | 143 | 1.6 | 6.4 | 0.00 | 0.10 | 0.10 | 76 | 1011.9 |
| 20260508131502 | 9 | 142 | 1.6 | 6.4 | 0.00 | 0.10 | 0.10 | 75 | 1012.0 |
| 20260508131359 | 9 | 142 | 1.6 | 6.4 | 0.00 | 0.10 | 0.10 | 77 | 1012.0 |
| 20260508131002 | 8 | 142 | 1.6 | 4.8 | 0.00 | 0.10 | 0.10 | 76 | 1011.9 |
| 20260508130859 | 8 | 142 | 1.6 | 4.8 | 0.00 | 0.10 | 0.10 | 76 | 1011.9 |
| 20260508130502 | 8 | 142 | 1.6 | 4.8 | 0.00 | 0.10 | 0.10 | 76 | 1011.9 |
| 20260508130359 | 8 | 142 | 3.2 | 6.4 | 0.00 | 0.10 | 0.10 | 76 | 1011.9 |
| 20260508130002 | 8 | 142 | 3.2 | 6.4 | 0.00 | 0.10 | 0.10 | 74 | 1011.8 |
| 20260508125859 | 8 | 143 | 3.2 | 6.4 | 0.00 | 0.10 | 0.10 | 74 | 1011.8 |
| 20260508125524 | 8 | 143 | 3.2 | 6.4 | 0.00 | 0.10 | 0.10 | 74 | 1011.9 |
| 20260508125359 | 8 | 143 | 3.2 | 6.4 | 0.00 | 0.10 | 0.10 | 74 | 1012.0 |
| 20260508125002 | 8 | 143 | 3.2 | 6.4 | 0.00 | 0.10 | 0.10 | 75 | 1011.8 |
| 20260508124859 | 8 | 143 | 3.2 | 6.4 | 0.00 | 0.10 | 0.10 | 75 | 1011.8 |
| 20260508124502 | 8 | 143 | 1.6 | 4.8 | 0.00 | 0.10 | 0.10 | 77 | 1011.9 |
| 20260508124359 | 8 | 143 | 1.6 | 4.8 | 0.00 | 0.10 | 0.10 | 77 | 1011.9 |
| 20260508124003 | 8 | 128 | 3.2 | 4.8 | 0.00 | 0.10 | 0.10 | 76 | 1011.9 |
| 20260508123859 | 8 | 109 | 3.2 | 4.8 | 0.00 | 0.10 | 0.10 | 76 | 1011.8 |
| 20260508123523 | 8 | 78 | 3.2 | 4.8 | 0.00 | 0.10 | 0.10 | 76 | 1011.7 |
| 20260508123359 | 8 | 60 | 3.2 | 4.8 | 0.00 | 0.10 | 0.10 | 77 | 1011.8 |
| 20260508123002 | 8 | 41 | 3.2 | 4.8 | 0.00 | 0.10 | 0.10 | 77 | 1011.8 |
| 20260508122859 | 8 | 41 | 1.6 | 4.8 | 0.00 | 0.10 | 0.10 | 76 | 1011.8 |
| 20260508122503 | 8 | 41 | 1.6 | 4.8 | 0.00 | 0.10 | 0.10 | 77 | 1011.6 |
| 20260508122359 | 7 | 41 | 1.6 | 6.4 | 0.00 | 0.10 | 0.10 | 77 | 1011.8 |
| 20260508122002 | 7 | 41 | 1.6 | 6.4 | 0.00 | 0.10 | 0.10 | 77 | 1011.8 |
| 20260508121859 | 7 | 41 | 1.6 | 6.4 | 0.00 | 0.10 | 0.10 | 77 | 1011.6 |
| 20260508121502 | 7 | 41 | 1.6 | 6.4 | 0.00 | 0.10 | 0.10 | 78 | 1011.6 |
| 20260508121359 | 7 | 40 | 1.6 | 4.8 | 0.00 | 0.10 | 0.10 | 79 | 1011.6 |
| 20260508121024 | 7 | 40 | 1.6 | 4.8 | 0.00 | 0.10 | 0.10 | 80 | 1011.5 |
| 20260508120859 | 7 | 40 | 1.6 | 4.8 | 0.00 | 0.10 | 0.10 | 80 | 1011.4 |
| 20260508120503 | 7 | 40 | 1.6 | 4.8 | 0.00 | 0.10 | 0.10 | 81 | 1011.4 |
| 20260508120359 | 7 | 40 | 1.6 | 4.8 | 0.00 | 0.10 | 0.10 | 82 | 1011.4 |
| 20260508120002 | 7 | 40 | 1.6 | 4.8 | 0.00 | 0.10 | 0.10 | 82 | 1011.4 |
| 20260508115858 | 6 | 34 | 1.6 | 6.4 | 0.00 | 0.10 | 0.10 | 84 | 1011.3 |
| 20260508115502 | 6 | 17 | 1.6 | 6.4 | 0.00 | 0.10 | 0.10 | 84 | 1011.3 |
| 20260508115358 | 6 | 353 | 1.6 | 6.4 | 0.00 | 0.10 | 0.10 | 85 | 1011.4 |
| 20260508115003 | 6 | 297 | 0.0 | 6.4 | 0.00 | 0.10 | 0.10 | 86 | 1011.3 |
| 20260508114858 | 6 | 279 | 0.0 | 4.8 | 0.00 | 0.10 | 0.10 | 87 | 1011.3 |
| 20260508114523 | 6 | 279 | 0.0 | 4.8 | 0.00 | 0.10 | 0.10 | 87 | 1011.1 |
| 20260508114358 | 6 | 278 | 0.0 | 1.6 | 0.00 | 0.10 | 0.10 | 88 | 1011.2 |
| 20260508114003 | 6 | 278 | 0.0 | 1.6 | 0.00 | 0.10 | 0.10 | 88 | 1011.2 |
| 20260508113858 | 6 | 278 | 0.0 | 1.6 | 0.00 | 0.10 | 0.10 | 88 | 1011.1 |
| 20260508113502 | 6 | 278 | 0.0 | 1.6 | 0.00 | 0.10 | 0.10 | 88 | 1011.1 |
| 20260508113358 | 6 | 278 | 0.0 | 1.6 | 0.00 | 0.10 | 0.10 | 88 | 1011.2 |
| 20260508113023 | 6 | 278 | 0.0 | 1.6 | 0.00 | 0.10 | 0.10 | 89 | 1011.1 |
| 20260508112858 | 5 | 277 | 0.0 | 1.6 | 0.00 | 0.10 | 0.10 | 89 | 1011.1 |
| 20260508112503 | 5 | 277 | 0.0 | 1.6 | 0.00 | 0.10 | 0.10 | 89 | 1011.0 |
| 20260508112358 | 5 | 277 | 0.0 | 1.6 | 0.00 | 0.10 | 0.10 | 89 | 1011.1 |
| 20260508112002 | 5 | 277 | 0.0 | 1.6 | 0.00 | 0.10 | 0.10 | 89 | 1011.0 |
| 20260508111858 | 5 | 277 | 0.0 | 1.6 | 0.00 | 0.10 | 0.10 | 89 | 1010.9 |
| 20260508111502 | 5 | 277 | 0.0 | 1.6 | 0.00 | 0.10 | 0.10 | 89 | 1011.0 |
| 20260508111358 | 5 | 277 | 0.0 | 1.6 | 0.00 | 0.10 | 0.10 | 89 | 1011.0 |
| 20260508111002 | 5 | 277 | 0.0 | 1.6 | 0.00 | 0.10 | 0.10 | 88 | 1010.8 |
| 20260508110858 | 5 | 277 | 0.0 | 1.6 | 0.00 | 0.10 | 0.10 | 88 | 1010.9 |
| 20260508110502 | 4 | 277 | 0.0 | 1.6 | 0.00 | 0.10 | 0.10 | 88 | 1010.9 |
| 20260508110358 | 4 | 277 | 0.0 | 1.6 | 0.00 | 0.10 | 0.10 | 88 | 1010.8 |
| 20260508110003 | 4 | 0 | 0.0 | 0.0 | 0.00 | 0.10 | 0.10 | 88 | 1010.9 |
| 20260508105857 | 4 | 0 | 0.0 | 0.0 | 0.00 | 0.10 | 0.10 | 88 | 1010.9 |
| 20260508105504 | 4 | 0 | 0.0 | 0.0 | 0.00 | 0.10 | 0.10 | 87 | 1010.8 |
| 20260508105357 | 4 | 0 | 0.0 | 0.0 | 0.00 | 0.10 | 0.10 | 87 | 1010.8 |
| 20260508105002 | 4 | 0 | 0.0 | 0.0 | 0.00 | 0.10 | 0.10 | 87 | 1010.9 |
| 20260508104857 | 4 | 0 | 0.0 | 0.0 | 0.00 | 0.10 | 0.10 | 87 | 1010.8 |
| 20260508104503 | 4 | 0 | 0.0 | 0.0 | 0.00 | 0.10 | 0.10 | 87 | 1010.9 |
| 20260508104357 | 4 | 0 | 0.0 | 0.0 | 0.00 | 0.10 | 0.10 | 87 | 1010.9 |
| 20260508104002 | 4 | 0 | 0.0 | 0.0 | 0.00 | 0.10 | 0.10 | 87 | 1010.9 |
| 20260508103857 | 4 | 277 | 0.0 | 1.6 | 0.00 | 0.10 | 0.10 | 87 | 1010.9 |
| 20260508103502 | 4 | 277 | 0.0 | 1.6 | 0.00 | 0.10 | 0.10 | 87 | 1010.8 |
| 20260508103357 | 4 | 277 | 0.0 | 1.6 | 0.00 | 0.10 | 0.10 | 87 | 1010.9 |
| 20260508103024 | 4 | 277 | 0.0 | 3.2 | 0.00 | 0.10 | 0.10 | 87 | 1010.9 |
| 20260508102857 | 4 | 277 | 0.0 | 3.2 | 0.00 | 0.10 | 0.10 | 87 | 1010.9 |
| 20260508102503 | 5 | 277 | 0.0 | 3.2 | 0.00 | 0.10 | 0.10 | 87 | 1010.9 |
| 20260508102357 | 5 | 277 | 0.0 | 3.2 | 0.00 | 0.10 | 0.10 | 87 | 1010.8 |
| 20260508102023 | 5 | 277 | 0.0 | 1.6 | 0.00 | 0.10 | 0.10 | 87 | 1010.9 |
| 20260508101857 | 5 | 277 | 0.0 | 1.6 | 0.00 | 0.10 | 0.10 | 87 | 1010.9 |
| 20260508101523 | 5 | 277 | 0.0 | 1.6 | 0.00 | 0.10 | 0.10 | 87 | 1010.9 |
| 20260508101357 | 5 | 277 | 0.0 | 1.6 | 0.00 | 0.10 | 0.10 | 87 | 1010.8 |
| 20260508101003 | 5 | 0 | 0.0 | 0.0 | 0.00 | 0.10 | 0.10 | 87 | 1010.9 |
| 20260508100857 | 5 | 0 | 0.0 | 0.0 | 0.00 | 0.10 | 0.10 | 87 | 1010.9 |
| 20260508100503 | 5 | 277 | 0.0 | 1.6 | 0.00 | 0.10 | 0.10 | 87 | 1010.9 |
| 20260508100357 | 5 | 277 | 0.0 | 1.6 | 0.00 | 0.10 | 0.10 | 87 | 1010.9 |
| 20260508100002 | 5 | 277 | 0.0 | 1.6 | 0.00 | 0.10 | 0.10 | 87 | 1010.9 |
| 20260508095856 | 5 | 277 | 0.0 | 1.6 | 0.00 | 0.10 | 0.10 | 86 | 1011.0 |
| 20260508095503 | 5 | 277 | 0.0 | 1.6 | 0.00 | 0.10 | 0.10 | 86 | 1011.0 |
| 20260508095356 | 5 | 277 | 0.0 | 1.6 | 0.00 | 0.10 | 0.10 | 86 | 1010.9 |
| 20260508095003 | 5 | 0 | 0.0 | 0.0 | 0.00 | 0.10 | 0.10 | 86 | 1010.9 |
| 20260508094856 | 5 | 0 | 0.0 | 0.0 | 0.00 | 0.10 | 0.10 | 86 | 1011.0 |
| 20260508094502 | 5 | 277 | 0.0 | 3.2 | 0.00 | 0.10 | 0.10 | 86 | 1010.9 |
| 20260508094356 | 5 | 277 | 0.0 | 3.2 | 0.00 | 0.10 | 0.10 | 86 | 1010.9 |
| 20260508094002 | 5 | 277 | 0.0 | 3.2 | 0.00 | 0.10 | 0.10 | 86 | 1011.0 |
| 20260508093856 | 5 | 277 | 1.6 | 3.2 | 0.00 | 0.10 | 0.10 | 86 | 1011.0 |
| 20260508093503 | 5 | 277 | 1.6 | 3.2 | 0.00 | 0.10 | 0.10 | 86 | 1011.0 |
| 20260508093356 | 5 | 277 | 1.6 | 3.2 | 0.00 | 0.10 | 0.10 | 86 | 1011.0 |
| 20260508093002 | 5 | 277 | 1.6 | 3.2 | 0.00 | 0.10 | 0.10 | 86 | 1010.9 |
| 20260508092856 | 5 | 277 | 0.0 | 3.2 | 0.00 | 0.10 | 0.10 | 86 | 1011.0 |
| 20260508092502 | 5 | 0 | 0.0 | 0.0 | 0.00 | 0.10 | 0.10 | 85 | 1010.9 |
| 20260508092356 | 5 | 0 | 0.0 | 0.0 | 0.00 | 0.10 | 0.10 | 86 | 1011.0 |
| 20260508092002 | 5 | 0 | 0.0 | 0.0 | 0.00 | 0.10 | 0.10 | 86 | 1011.0 |
| 20260508091856 | 5 | 0 | 0.0 | 0.0 | 0.00 | 0.10 | 0.10 | 86 | 1011.0 |
| 20260508091502 | 5 | 0 | 0.0 | 0.0 | 0.00 | 0.10 | 0.10 | 86 | 1011.0 |
| 20260508091356 | 5 | 0 | 0.0 | 0.0 | 0.00 | 0.10 | 0.10 | 86 | 1011.0 |
| 20260508091003 | 5 | 0 | 0.0 | 0.0 | 0.00 | 0.10 | 0.10 | 86 | 1011.0 |
| 20260508090856 | 5 | 0 | 0.0 | 0.0 | 0.00 | 0.10 | 0.10 | 86 | 1011.0 |
| 20260508090503 | 5 | 0 | 0.0 | 0.0 | 0.00 | 0.10 | 0.10 | 86 | 1011.1 |
| 20260508090356 | 5 | 0 | 0.0 | 0.0 | 0.00 | 0.10 | 0.10 | 86 | 1011.1 |
| 20260508090003 | 5 | 277 | 0.0 | 1.6 | 0.00 | 0.10 | 0.10 | 86 | 1011.1 |
| 20260508085856 | 5 | 277 | 0.0 | 1.6 | 0.00 | 0.10 | 0.10 | 86 | 1011.1 |
| 20260508085502 | 5 | 277 | 0.0 | 3.2 | 0.00 | 0.10 | 0.10 | 86 | 1011.2 |
| 20260508085356 | 5 | 275 | 1.6 | 6.4 | 0.00 | 0.10 | 0.10 | 86 | 1011.3 |
| 20260508085003 | 5 | 275 | 1.6 | 6.4 | 0.00 | 0.10 | 0.10 | 86 | 1011.3 |
| 20260508084855 | 5 | 275 | 1.6 | 6.4 | 0.00 | 0.10 | 0.10 | 86 | 1011.2 |
| 20260508084502 | 5 | 274 | 1.6 | 6.4 | 0.00 | 0.10 | 0.10 | 86 | 1011.2 |
| 20260508084355 | 5 | 273 | 0.0 | 6.4 | 0.00 | 0.10 | 0.10 | 86 | 1011.1 |
| 20260508084003 | 5 | 0 | 0.0 | 0.0 | 0.00 | 0.10 | 0.10 | 86 | 1011.0 |
| 20260508083855 | 6 | 0 | 0.0 | 0.0 | 0.00 | 0.10 | 0.10 | 86 | 1010.9 |
| 20260508083503 | 6 | 0 | 0.0 | 0.0 | 0.00 | 0.10 | 0.10 | 86 | 1011.0 |
| 20260508083355 | 6 | 0 | 0.0 | 0.0 | 0.00 | 0.10 | 0.10 | 85 | 1011.0 |
| 20260508083003 | 6 | 0 | 0.0 | 0.0 | 0.00 | 0.10 | 0.10 | 85 | 1011.0 |
| 20260508082855 | 6 | 0 | 0.0 | 0.0 | 0.00 | 0.10 | 0.10 | 85 | 1011.0 |
| 20260508082502 | 6 | 0 | 0.0 | 0.0 | 0.00 | 0.10 | 0.10 | 85 | 1011.1 |
| 20260508082355 | 6 | 0 | 0.0 | 0.0 | 0.00 | 0.10 | 0.10 | 85 | 1011.1 |
| 20260508082003 | 6 | 0 | 0.0 | 0.0 | 0.00 | 0.10 | 0.10 | 85 | 1011.0 |
| 20260508081855 | 6 | 0 | 0.0 | 0.0 | 0.00 | 0.10 | 0.10 | 85 | 1011.1 |
| 20260508081502 | 6 | 0 | 0.0 | 0.0 | 0.00 | 0.10 | 0.10 | 85 | 1011.1 |
| 20260508081355 | 6 | 0 | 0.0 | 0.0 | 0.00 | 0.10 | 0.10 | 85 | 1011.1 |
| 20260508081023 | 6 | 0 | 0.0 | 0.0 | 0.00 | 0.10 | 0.10 | 85 | 1011.2 |
| 20260508080855 | 6 | 0 | 0.0 | 0.0 | 0.00 | 0.10 | 0.10 | 85 | 1011.2 |
| 20260508080503 | 6 | 0 | 0.0 | 0.0 | 0.00 | 0.10 | 0.10 | 85 | 1011.2 |
| 20260508080355 | 6 | 0 | 0.0 | 0.0 | 0.00 | 0.10 | 0.10 | 86 | 1011.1 |
| 20260508080003 | 6 | 0 | 0.0 | 0.0 | 0.00 | 0.10 | 0.10 | 86 | 1011.1 |
| 20260508075855 | 6 | 0 | 0.0 | 0.0 | 0.00 | 0.10 | 0.10 | 86 | 1011.2 |
| 20260508075502 | 6 | 0 | 0.0 | 0.0 | 0.00 | 0.10 | 0.10 | 86 | 1011.1 |
| 20260508075355 | 6 | 0 | 0.0 | 0.0 | 0.00 | 0.10 | 0.10 | 86 | 1011.1 |
| 20260508075003 | 6 | 0 | 0.0 | 0.0 | 0.00 | 0.10 | 0.10 | 86 | 1011.0 |
| 20260508074854 | 6 | 0 | 0.0 | 0.0 | 0.00 | 0.10 | 0.10 | 86 | 1011.0 |
| 20260508074503 | 6 | 0 | 0.0 | 0.0 | 0.00 | 0.10 | 0.10 | 86 | 1011.1 |
| 20260508074354 | 6 | 0 | 0.0 | 0.0 | 0.00 | 0.10 | 0.10 | 86 | 1011.0 |
| 20260508074024 | 6 | 0 | 0.0 | 0.0 | 0.00 | 0.10 | 0.10 | 86 | 1011.1 |
| 20260508073854 | 6 | 0 | 0.0 | 0.0 | 0.00 | 0.10 | 0.10 | 87 | 1011.1 |
| 20260508073502 | 6 | 0 | 0.0 | 0.0 | 0.00 | 0.10 | 0.10 | 87 | 1011.0 |
| 20260508073354 | 6 | 0 | 0.0 | 0.0 | 0.00 | 0.10 | 0.10 | 87 | 1011.1 |
| 20260508073003 | 6 | 0 | 0.0 | 0.0 | 0.00 | 0.10 | 0.10 | 87 | 1011.1 |
| 20260508072854 | 6 | 0 | 0.0 | 0.0 | 0.00 | 0.10 | 0.10 | 87 | 1011.2 |
| 20260508072502 | 6 | 0 | 0.0 | 0.0 | 0.00 | 0.10 | 0.10 | 87 | 1011.2 |
| 20260508072354 | 6 | 0 | 0.0 | 0.0 | 0.00 | 0.10 | 0.10 | 88 | 1011.2 |
| 20260508072002 | 6 | 0 | 0.0 | 0.0 | 0.00 | 0.10 | 0.10 | 88 | 1011.1 |
| 20260508071854 | 6 | 0 | 0.0 | 0.0 | 0.00 | 0.10 | 0.10 | 88 | 1011.1 |
| 20260508071503 | 6 | 0 | 0.0 | 0.0 | 0.00 | 0.10 | 0.10 | 88 | 1011.1 |
| 20260508071354 | 6 | 0 | 0.0 | 0.0 | 0.00 | 0.10 | 0.10 | 88 | 1011.0 |
| 20260508071003 | 6 | 273 | 0.0 | 3.2 | 0.00 | 0.10 | 0.10 | 88 | 1010.9 |
| 20260508070854 | 6 | 273 | 0.0 | 3.2 | 0.00 | 0.10 | 0.10 | 88 | 1011.0 |
| 20260508070503 | 6 | 273 | 0.0 | 3.2 | 0.00 | 0.10 | 0.10 | 88 | 1011.0 |
| 20260508070354 | 6 | 272 | 0.0 | 3.2 | 0.00 | 0.10 | 0.10 | 89 | 1011.0 |
| 20260508070003 | 6 | 272 | 0.0 | 3.2 | 0.00 | 0.10 | 0.10 | 89 | 1011.2 |
| 20260508065854 | 6 | 272 | 0.0 | 3.2 | 0.00 | 0.10 | 0.10 | 89 | 1011.2 |
| 20260508065503 | 6 | 272 | 0.0 | 3.2 | 0.00 | 0.10 | 0.10 | 88 | 1011.2 |
| 20260508065354 | 6 | 272 | 0.0 | 3.2 | 0.00 | 0.10 | 0.10 | 88 | 1011.2 |
| 20260508065003 | 6 | 0 | 0.0 | 0.0 | 0.00 | 0.10 | 0.10 | 88 | 1011.1 |
| 20260508064853 | 6 | 0 | 0.0 | 0.0 | 0.00 | 0.10 | 0.10 | 88 | 1011.1 |
| 20260508064503 | 6 | 0 | 0.0 | 0.0 | 0.00 | 0.10 | 0.10 | 88 | 1011.1 |
| 20260508064353 | 6 | 0 | 0.0 | 0.0 | 0.00 | 0.10 | 0.10 | 88 | 1011.1 |
| 20260508064003 | 6 | 0 | 0.0 | 0.0 | 0.00 | 0.10 | 0.10 | 87 | 1011.0 |
| 20260508063853 | 6 | 0 | 0.0 | 0.0 | 0.00 | 0.10 | 0.10 | 87 | 1011.1 |
| 20260508063502 | 6 | 0 | 0.0 | 0.0 | 0.00 | 0.10 | 0.10 | 87 | 1011.0 |
| 20260508063353 | 6 | 0 | 0.0 | 0.0 | 0.00 | 0.10 | 0.10 | 87 | 1011.1 |
| 20260508063003 | 6 | 0 | 0.0 | 0.0 | 0.00 | 0.10 | 0.10 | 87 | 1011.0 |
| 20260508062853 | 6 | 0 | 0.0 | 0.0 | 0.00 | 0.10 | 0.10 | 87 | 1011.1 |
| 20260508062524 | 6 | 0 | 0.0 | 0.0 | 0.00 | 0.10 | 0.10 | 87 | 1011.1 |
| 20260508062353 | 6 | 0 | 0.0 | 0.0 | 0.00 | 0.10 | 0.10 | 87 | 1011.1 |
| 20260508062023 | 6 | 0 | 0.0 | 0.0 | 0.00 | 0.10 | 0.10 | 87 | 1011.2 |
| 20260508061853 | 6 | 0 | 0.0 | 0.0 | 0.00 | 0.10 | 0.10 | 86 | 1011.2 |
| 20260508061524 | 6 | 0 | 0.0 | 0.0 | 0.00 | 0.10 | 0.10 | 86 | 1011.2 |
| 20260508061353 | 7 | 0 | 0.0 | 0.0 | 0.00 | 0.10 | 0.10 | 86 | 1011.2 |
| 20260508061003 | 7 | 0 | 0.0 | 0.0 | 0.00 | 0.10 | 0.10 | 86 | 1011.3 |
| 20260508060853 | 7 | 0 | 0.0 | 0.0 | 0.03 | 0.10 | 0.10 | 86 | 1011.3 |
| 20260508060502 | 7 | 0 | 0.0 | 0.0 | 0.03 | 0.10 | 0.10 | 85 | 1011.3 |
| 20260508060353 | 7 | 0 | 0.0 | 0.0 | 0.03 | 0.10 | 0.10 | 85 | 1011.3 |
| 20260508060003 | 7 | 0 | 0.0 | 0.0 | 0.03 | 0.10 | 0.10 | 84 | 1011.3 |
| 20260508055853 | 7 | 0 | 0.0 | 0.0 | 0.03 | 0.10 | 0.10 | 84 | 1011.2 |
| 20260508055503 | 7 | 0 | 0.0 | 0.0 | 0.05 | 0.10 | 0.10 | 85 | 1011.1 |
| 20260508055353 | 7 | 0 | 0.0 | 0.0 | 0.08 | 0.10 | 0.10 | 84 | 1011.2 |
| 20260508055003 | 7 | 0 | 0.0 | 0.0 | 0.08 | 0.10 | 0.10 | 84 | 1011.1 |
| 20260508054852 | 7 | 0 | 0.0 | 0.0 | 0.08 | 0.10 | 0.10 | 84 | 1011.2 |
| 20260508054504 | 7 | 0 | 0.0 | 0.0 | 0.10 | 0.10 | 0.10 | 84 | 1011.1 |
| 20260508054352 | 7 | 0 | 0.0 | 0.0 | 0.10 | 0.10 | 0.10 | 83 | 1011.1 |
| 20260508054003 | 7 | 0 | 0.0 | 0.0 | 0.10 | 0.10 | 0.10 | 83 | 1011.0 |
| 20260508053852 | 7 | 0 | 0.0 | 0.0 | 0.10 | 0.10 | 0.10 | 83 | 1011.1 |
| 20260508053503 | 7 | 0 | 0.0 | 0.0 | 0.10 | 0.10 | 0.10 | 82 | 1011.3 |
| 20260508053352 | 8 | 0 | 0.0 | 0.0 | 0.10 | 0.10 | 0.10 | 82 | 1011.4 |
| 20260508053003 | 8 | 272 | 0.0 | 1.6 | 0.10 | 0.10 | 0.10 | 81 | 1011.5 |
| 20260508052852 | 8 | 272 | 0.0 | 4.8 | 0.10 | 0.10 | 0.10 | 81 | 1011.6 |
| 20260508052503 | 8 | 272 | 1.6 | 4.8 | 0.10 | 0.10 | 0.10 | 80 | 1011.6 |
| 20260508052352 | 8 | 272 | 1.6 | 4.8 | 0.10 | 0.10 | 0.10 | 80 | 1011.6 |
| 20260508052002 | 8 | 272 | 3.2 | 6.4 | 0.10 | 0.10 | 0.10 | 80 | 1011.8 |
| 20260508051852 | 8 | 272 | 3.2 | 6.4 | 0.10 | 0.10 | 0.10 | 80 | 1011.7 |
| 20260508051503 | 8 | 273 | 3.2 | 9.7 | 0.10 | 0.10 | 0.10 | 80 | 1011.7 |
| 20260508051352 | 8 | 273 | 3.2 | 9.7 | 0.10 | 0.10 | 0.10 | 78 | 1011.7 |
| 20260508051024 | 8 | 275 | 3.2 | 9.7 | 0.08 | 0.08 | 0.08 | 77 | 1011.7 |
| 20260508050852 | 8 | 275 | 4.8 | 12.9 | 0.08 | 0.08 | 0.08 | 77 | 1011.7 |
| 20260508050503 | 8 | 275 | 4.8 | 16.1 | 0.08 | 0.08 | 0.08 | 76 | 1011.7 |
| 20260508050352 | 9 | 280 | 8.0 | 16.1 | 0.08 | 0.08 | 0.08 | 75 | 1011.7 |
| 20260508050003 | 9 | 289 | 9.7 | 20.9 | 0.08 | 0.08 | 0.08 | 75 | 1011.9 |
| 20260508045852 | 9 | 295 | 12.9 | 24.1 | 0.08 | 0.08 | 0.08 | 74 | 1011.9 |
| 20260508045503 | 10 | 295 | 12.9 | 24.1 | 0.05 | 0.05 | 0.05 | 72 | 1012.0 |
| 20260508045352 | 10 | 289 | 11.3 | 24.1 | 0.03 | 0.03 | 0.03 | 71 | 1011.9 |
| 20260508045003 | 10 | 284 | 9.7 | 24.1 | 0.03 | 0.03 | 0.03 | 69 | 1011.9 |
| 20260508044852 | 10 | 272 | 8.0 | 17.7 | 0.03 | 0.03 | 0.03 | 68 | 1011.7 |
| 20260508044503 | 10 | 262 | 6.4 | 16.1 | 0.00 | 0.00 | 0.00 | 66 | 1011.8 |
| 20260508044352 | 10 | 262 | 4.8 | 12.9 | 0.00 | 0.00 | 0.00 | 64 | 1011.5 |
| 20260508044003 | 10 | 244 | 4.8 | 9.7 | 0.00 | 0.00 | 0.00 | 63 | 1011.4 |
| 20260508043852 | 10 | 240 | 3.2 | 6.4 | 0.00 | 0.00 | 0.00 | 63 | 1011.4 |
| 20260508043502 | 10 | 238 | 3.2 | 8.0 | 0.00 | 0.00 | 0.00 | 63 | 1011.3 |
| 20260508043352 | 10 | 235 | 3.2 | 8.0 | 0.00 | 0.00 | 0.00 | 63 | 1011.3 |
| 20260508043004 | 10 | 226 | 3.2 | 8.0 | 0.00 | 0.00 | 0.00 | 63 | 1011.3 |
| 20260508042851 | 10 | 220 | 3.2 | 8.0 | 0.00 | 0.00 | 0.00 | 63 | 1011.2 |
| 20260508042524 | 10 | 211 | 3.2 | 8.0 | 0.00 | 0.00 | 0.00 | 63 | 1011.3 |
| 20260508042351 | 10 | 210 | 3.2 | 6.4 | 0.00 | 0.00 | 0.00 | 62 | 1011.3 |
| 20260508042003 | 10 | 207 | 3.2 | 6.4 | 0.00 | 0.00 | 0.00 | 62 | 1011.3 |
| 20260508041851 | 10 | 205 | 3.2 | 6.4 | 0.00 | 0.00 | 0.00 | 62 | 1011.1 |
| 20260508041524 | 10 | 201 | 3.2 | 8.0 | 0.00 | 0.00 | 0.00 | 61 | 1011.2 |
| 20260508041351 | 10 | 200 | 3.2 | 8.0 | 0.00 | 0.00 | 0.00 | 60 | 1011.2 |
| 20260508041004 | 10 | 199 | 3.2 | 8.0 | 0.00 | 0.00 | 0.00 | 58 | 1011.1 |
| 20260508040851 | 10 | 199 | 1.6 | 8.0 | 0.00 | 0.00 | 0.00 | 58 | 1011.2 |
| 20260508040524 | 10 | 196 | 1.6 | 4.8 | 0.00 | 0.00 | 0.00 | 58 | 1011.2 |
| 20260508040351 | 10 | 196 | 1.6 | 3.2 | 0.00 | 0.00 | 0.00 | 58 | 1011.1 |
| 20260508040024 | 10 | 196 | 1.6 | 6.4 | 0.00 | 0.00 | 0.00 | 58 | 1011.3 |
| 20260508035851 | 10 | 195 | 3.2 | 6.4 | 0.00 | 0.00 | 0.00 | 57 | 1011.3 |
| 20260508035503 | 11 | 217 | 3.2 | 11.3 | 0.00 | 0.00 | 0.00 | 57 | 1011.2 |
| 20260508035351 | 11 | 235 | 3.2 | 11.3 | 0.00 | 0.00 | 0.00 | 57 | 1011.2 |
| 20260508035004 | 11 | 253 | 3.2 | 11.3 | 0.00 | 0.00 | 0.00 | 56 | 1011.2 |
| 20260508034851 | 11 | 265 | 3.2 | 11.3 | 0.00 | 0.00 | 0.00 | 56 | 1011.2 |
| 20260508034524 | 11 | 271 | 3.2 | 6.4 | 0.00 | 0.00 | 0.00 | 55 | 1011.2 |
| 20260508034351 | 11 | 271 | 3.2 | 6.4 | 0.00 | 0.00 | 0.00 | 56 | 1011.2 |
| 20260508034003 | 11 | 271 | 1.6 | 6.4 | 0.00 | 0.00 | 0.00 | 55 | 1011.3 |
| 20260508033851 | 11 | 271 | 1.6 | 6.4 | 0.00 | 0.00 | 0.00 | 55 | 1011.3 |
| 20260508033524 | 11 | 271 | 1.6 | 6.4 | 0.00 | 0.00 | 0.00 | 55 | 1011.4 |
| 20260508033351 | 11 | 271 | 1.6 | 4.8 | 0.00 | 0.00 | 0.00 | 56 | 1011.5 |
| 20260508033003 | 11 | 271 | 1.6 | 6.4 | 0.00 | 0.00 | 0.00 | 55 | 1011.4 |
| 20260508032851 | 11 | 271 | 3.2 | 6.4 | 0.00 | 0.00 | 0.00 | 54 | 1011.5 |
| 20260508032504 | 11 | 272 | 3.2 | 6.4 | 0.00 | 0.00 | 0.00 | 54 | 1011.5 |
| 20260508032351 | 11 | 272 | 1.6 | 6.4 | 0.00 | 0.00 | 0.00 | 54 | 1011.6 |
| 20260508032024 | 11 | 272 | 1.6 | 4.8 | 0.00 | 0.00 | 0.00 | 54 | 1011.4 |
| 20260508031851 | 11 | 272 | 1.6 | 4.8 | 0.00 | 0.00 | 0.00 | 54 | 1011.5 |
| 20260508031503 | 11 | 272 | 1.6 | 4.8 | 0.00 | 0.00 | 0.00 | 54 | 1011.5 |
| 20260508031350 | 11 | 272 | 1.6 | 4.8 | 0.00 | 0.00 | 0.00 | 54 | 1011.5 |
| 20260508031004 | 11 | 272 | 1.6 | 4.8 | 0.00 | 0.00 | 0.00 | 54 | 1011.6 |
| 20260508030850 | 11 | 272 | 1.6 | 4.8 | 0.00 | 0.00 | 0.00 | 54 | 1011.5 |
| 20260508030503 | 11 | 272 | 1.6 | 4.8 | 0.00 | 0.00 | 0.00 | 54 | 1011.5 |
| 20260508030350 | 11 | 272 | 0.0 | 3.2 | 0.00 | 0.00 | 0.00 | 54 | 1011.5 |
| 20260508030003 | 11 | 272 | 0.0 | 3.2 | 0.00 | 0.00 | 0.00 | 54 | 1011.4 |
| 20260508025850 | 11 | 272 | 0.0 | 3.2 | 0.00 | 0.00 | 0.00 | 54 | 1011.4 |
| 20260508025504 | 11 | 272 | 0.0 | 1.6 | 0.00 | 0.00 | 0.00 | 53 | 1011.4 |
| 20260508025350 | 11 | 272 | 0.0 | 3.2 | 0.00 | 0.00 | 0.00 | 53 | 1011.3 |
| 20260508025003 | 11 | 272 | 1.6 | 4.8 | 0.00 | 0.00 | 0.00 | 53 | 1011.4 |
| 20260508024850 | 11 | 272 | 1.6 | 4.8 | 0.00 | 0.00 | 0.00 | 53 | 1011.3 |
| 20260508024524 | 11 | 272 | 1.6 | 4.8 | 0.00 | 0.00 | 0.00 | 53 | 1011.3 |
| 20260508024350 | 11 | 272 | 1.6 | 4.8 | 0.00 | 0.00 | 0.00 | 52 | 1011.3 |
| 20260508024004 | 11 | 272 | 1.6 | 4.8 | 0.00 | 0.00 | 0.00 | 52 | 1011.2 |
| 20260508023850 | 11 | 272 | 3.2 | 4.8 | 0.00 | 0.00 | 0.00 | 52 | 1011.2 |
| 20260508023503 | 11 | 272 | 3.2 | 6.4 | 0.00 | 0.00 | 0.00 | 52 | 1011.3 |
| 20260508023350 | 11 | 272 | 3.2 | 6.4 | 0.00 | 0.00 | 0.00 | 52 | 1011.2 |
| 20260508023024 | 11 | 272 | 3.2 | 6.4 | 0.00 | 0.00 | 0.00 | 52 | 1011.2 |
| 20260508022850 | 11 | 271 | 3.2 | 6.4 | 0.00 | 0.00 | 0.00 | 53 | 1011.2 |
| 20260508022503 | 11 | 271 | 3.2 | 6.4 | 0.00 | 0.00 | 0.00 | 53 | 1011.2 |
| 20260508022350 | 11 | 271 | 3.2 | 6.4 | 0.00 | 0.00 | 0.00 | 53 | 1011.2 |
| 20260508022004 | 11 | 271 | 3.2 | 6.4 | 0.00 | 0.00 | 0.00 | 53 | 1011.2 |
| 20260508021850 | 11 | 271 | 3.2 | 6.4 | 0.00 | 0.00 | 0.00 | 53 | 1011.2 |
| 20260508021524 | 11 | 271 | 3.2 | 9.7 | 0.00 | 0.00 | 0.00 | 52 | 1011.1 |
| 20260508021349 | 11 | 271 | 4.8 | 9.7 | 0.00 | 0.00 | 0.00 | 52 | 1011.1 |
| 20260508021004 | 11 | 274 | 3.2 | 9.7 | 0.00 | 0.00 | 0.00 | 52 | 1011.2 |
| 20260508020849 | 11 | 277 | 4.8 | 9.7 | 0.00 | 0.00 | 0.00 | 52 | 1011.2 |
| 20260508020503 | 11 | 282 | 4.8 | 9.7 | 0.00 | 0.00 | 0.00 | 52 | 1011.1 |
| 20260508020349 | 11 | 287 | 4.8 | 9.7 | 0.00 | 0.00 | 0.00 | 52 | 1011.2 |
| 20260508020003 | 11 | 289 | 3.2 | 9.7 | 0.00 | 0.00 | 0.00 | 53 | 1011.3 |
| 20260508015849 | 11 | 288 | 4.8 | 9.7 | 0.00 | 0.00 | 0.00 | 52 | 1011.1 |
| 20260508015504 | 11 | 281 | 4.8 | 11.3 | 0.00 | 0.00 | 0.00 | 52 | 1011.2 |
| 20260508015349 | 11 | 276 | 4.8 | 11.3 | 0.00 | 0.00 | 0.00 | 52 | 1011.3 |
| 20260508015003 | 11 | 276 | 6.4 | 12.9 | 0.00 | 0.00 | 0.00 | 52 | 1011.2 |
| 20260508014849 | 11 | 280 | 6.4 | 12.9 | 0.00 | 0.00 | 0.00 | 52 | 1011.2 |
| 20260508014503 | 11 | 291 | 6.4 | 12.9 | 0.00 | 0.00 | 0.00 | 52 | 1011.2 |
| 20260508014349 | 11 | 294 | 6.4 | 12.9 | 0.00 | 0.00 | 0.00 | 52 | 1011.1 |
| 20260508014004 | 11 | 296 | 6.4 | 12.9 | 0.00 | 0.00 | 0.00 | 52 | 1011.1 |
| 20260508013849 | 11 | 295 | 6.4 | 12.9 | 0.00 | 0.00 | 0.00 | 52 | 1011.0 |
| 20260508013503 | 11 | 287 | 6.4 | 12.9 | 0.00 | 0.00 | 0.00 | 52 | 1011.1 |
| 20260508013349 | 11 | 286 | 6.4 | 16.1 | 0.00 | 0.00 | 0.00 | 52 | 1011.1 |
| 20260508013004 | 11 | 291 | 8.0 | 17.7 | 0.00 | 0.00 | 0.00 | 52 | 1011.1 |
| 20260508012849 | 11 | 287 | 9.7 | 20.9 | 0.00 | 0.00 | 0.00 | 52 | 1011.2 |
| 20260508012503 | 12 | 284 | 8.0 | 20.9 | 0.00 | 0.00 | 0.00 | 52 | 1011.1 |
| 20260508012349 | 12 | 284 | 8.0 | 20.9 | 0.00 | 0.00 | 0.00 | 51 | 1011.0 |
| 20260508012003 | 12 | 275 | 6.4 | 20.9 | 0.00 | 0.00 | 0.00 | 50 | 1011.1 |
| 20260508011848 | 12 | 276 | 6.4 | 17.7 | 0.00 | 0.00 | 0.00 | 48 | 1010.9 |
| 20260508011504 | 12 | 279 | 6.4 | 17.7 | 0.00 | 0.00 | 0.00 | 47 | 1011.0 |
| 20260508011348 | 12 | 278 | 6.4 | 17.7 | 0.00 | 0.00 | 0.00 | 48 | 1010.9 |
| 20260508011004 | 12 | 278 | 4.8 | 17.7 | 0.00 | 0.00 | 0.00 | 48 | 1010.8 |
| 20260508010848 | 12 | 279 | 4.8 | 9.7 | 0.00 | 0.00 | 0.00 | 48 | 1010.8 |
| 20260508010504 | 12 | 280 | 6.4 | 16.1 | 0.00 | 0.00 | 0.00 | 48 | 1010.7 |
| 20260508010348 | 12 | 284 | 6.4 | 16.1 | 0.00 | 0.00 | 0.00 | 47 | 1010.6 |
| 20260508010004 | 12 | 291 | 6.4 | 16.1 | 0.00 | 0.00 | 0.00 | 47 | 1010.6 |
| 20260508005848 | 12 | 294 | 4.8 | 16.1 | 0.00 | 0.00 | 0.00 | 47 | 1010.5 |
| 20260508005503 | 12 | 303 | 3.2 | 12.9 | 0.00 | 0.00 | 0.00 | 46 | 1010.6 |
| 20260508005348 | 12 | 306 | 3.2 | 12.9 | 0.00 | 0.00 | 0.00 | 46 | 1010.6 |
| 20260508005004 | 12 | 304 | 3.2 | 6.4 | 0.00 | 0.00 | 0.00 | 46 | 1010.6 |
| 20260508004848 | 12 | 305 | 3.2 | 12.9 | 0.00 | 0.00 | 0.00 | 47 | 1010.5 |
| 20260508004503 | 12 | 293 | 4.8 | 12.9 | 0.00 | 0.00 | 0.00 | 47 | 1010.6 |
| 20260508004348 | 12 | 295 | 4.8 | 12.9 | 0.00 | 0.00 | 0.00 | 47 | 1010.5 |
| 20260508004003 | 12 | 292 | 4.8 | 12.9 | 0.00 | 0.00 | 0.00 | 46 | 1010.5 |
| 20260508003848 | 12 | 288 | 4.8 | 11.3 | 0.00 | 0.00 | 0.00 | 45 | 1010.5 |
| 20260508003501 | 12 | 294 | 4.8 | 11.3 | 0.00 | 0.00 | 0.00 | 46 | 1010.4 |
| 20260508003318 | 12 | 287 | 4.8 | 12.9 | 0.00 | 0.00 | 0.00 | 46 | 1010.5 |
| 20260508003001 | 12 | 283 | 4.8 | 16.1 | 0.00 | 0.00 | 0.00 | 46 | 1010.5 |
| 20260508002818 | 12 | 282 | 6.4 | 16.1 | 0.00 | 0.00 | 0.00 | 46 | 1010.5 |
| 20260508002501 | 12 | 287 | 6.4 | 16.1 | 0.00 | 0.00 | 0.00 | 45 | 1010.5 |
| 20260508002318 | 12 | 289 | 6.4 | 16.1 | 0.00 | 0.00 | 0.00 | 45 | 1010.5 |
| 20260508002001 | 12 | 291 | 6.4 | 14.5 | 0.00 | 0.00 | 0.00 | 45 | 1010.6 |
| 20260508001818 | 12 | 292 | 6.4 | 19.3 | 0.00 | 0.00 | 0.00 | 44 | 1010.6 |
| 20260508001501 | 12 | 283 | 8.0 | 19.3 | 0.00 | 0.00 | 0.00 | 44 | 1010.4 |
| 20260508001318 | 12 | 281 | 8.0 | 19.3 | 0.00 | 0.00 | 0.00 | 43 | 1010.4 |
| 20260508001001 | 12 | 279 | 9.7 | 19.3 | 0.00 | 0.00 | 0.00 | 44 | 1010.5 |
| 20260508000817 | 12 | 277 | 11.3 | 17.7 | 0.00 | 0.00 | 0.00 | 45 | 1010.4 |
| 20260508000501 | 12 | 280 | 11.3 | 17.7 | 0.00 | 0.00 | 0.00 | 44 | 1010.5 |
| 20260508000319 | 12 | 279 | 11.3 | 20.9 | 0.00 | 0.00 | 0.00 | 44 | 1010.6 |
| 20260508000001 | 12 | 280 | 9.7 | 20.9 | 0.00 | 0.00 | 0.00 | 44 | 1010.4 |
| 20260507235817 | 12 | 280 | 8.0 | 20.9 | 0.00 | 0.00 | 0.00 | 44 | 1010.5 |
| 20260507235501 | 13 | 286 | 8.0 | 20.9 | 0.00 | 0.00 | 0.00 | 44 | 1010.5 |
| 20260507235317 | 13 | 286 | 8.0 | 19.3 | 0.00 | 0.00 | 0.00 | 44 | 1010.4 |
| 20260507235001 | 13 | 280 | 9.7 | 22.5 | 0.00 | 0.00 | 0.00 | 44 | 1010.4 |
| 20260507234817 | 13 | 279 | 12.9 | 24.1 | 0.00 | 0.00 | 0.00 | 44 | 1010.4 |
| 20260507234501 | 13 | 277 | 12.9 | 24.1 | 0.00 | 0.00 | 0.00 | 42 | 1010.3 |
| 20260507234317 | 13 | 277 | 14.5 | 24.1 | 0.00 | 0.00 | 0.00 | 43 | 1010.3 |
| 20260507234001 | 13 | 280 | 16.1 | 29.0 | 0.00 | 0.00 | 0.00 | 42 | 1010.3 |
| 20260507233817 | 13 | 278 | 14.5 | 29.0 | 0.00 | 0.00 | 0.00 | 42 | 1010.3 |
| 20260507233501 | 13 | 270 | 16.1 | 29.0 | 0.00 | 0.00 | 0.00 | 42 | 1010.3 |
| 20260507233317 | 13 | 268 | 16.1 | 29.0 | 0.00 | 0.00 | 0.00 | 42 | 1010.3 |
| 20260507233001 | 13 | 264 | 14.5 | 27.4 | 0.00 | 0.00 | 0.00 | 42 | 1010.4 |
| 20260507232817 | 13 | 261 | 12.9 | 27.4 | 0.00 | 0.00 | 0.00 | 42 | 1010.4 |
| 20260507232501 | 13 | 265 | 12.9 | 27.4 | 0.00 | 0.00 | 0.00 | 42 | 1010.3 |
| 20260507232317 | 13 | 266 | 12.9 | 22.5 | 0.00 | 0.00 | 0.00 | 43 | 1010.3 |
| 20260507232001 | 13 | 269 | 12.9 | 22.5 | 0.00 | 0.00 | 0.00 | 43 | 1010.3 |
| 20260507231817 | 13 | 275 | 11.3 | 22.5 | 0.00 | 0.00 | 0.00 | 43 | 1010.3 |
| 20260507231501 | 13 | 283 | 11.3 | 22.5 | 0.00 | 0.00 | 0.00 | 43 | 1010.4 |
| 20260507231317 | 13 | 283 | 8.0 | 19.3 | 0.00 | 0.00 | 0.00 | 43 | 1010.3 |
| 20260507231001 | 13 | 277 | 9.7 | 19.3 | 0.00 | 0.00 | 0.00 | 42 | 1010.3 |
| 20260507230817 | 13 | 269 | 9.7 | 19.3 | 0.00 | 0.00 | 0.00 | 43 | 1010.3 |
| 20260507230502 | 13 | 265 | 9.7 | 19.3 | 0.00 | 0.00 | 0.00 | 45 | 1010.3 |
| 20260507230316 | 13 | 263 | 9.7 | 19.3 | 0.00 | 0.00 | 0.00 | 45 | 1010.3 |
| 20260507230022 | 13 | 266 | 11.3 | 25.7 | 0.00 | 0.00 | 0.00 | 49 | 1010.4 |
| 20260507225816 | 13 | 270 | 11.3 | 25.7 | 0.00 | 0.00 | 0.00 | 43 | 1010.4 |
| 20260507225501 | 13 | 272 | 11.3 | 25.7 | 0.00 | 0.00 | 0.00 | 43 | 1010.5 |
| 20260507225316 | 13 | 281 | 9.7 | 25.7 | 0.00 | 0.00 | 0.00 | 43 | 1010.5 |
| 20260507225023 | 13 | 286 | 9.7 | 20.9 | 0.00 | 0.00 | 0.00 | 43 | 1010.6 |
| 20260507224816 | 13 | 288 | 9.7 | 20.9 | 0.00 | 0.00 | 0.00 | 42 | 1010.6 |
| 20260507224501 | 13 | 286 | 11.3 | 19.3 | 0.00 | 0.00 | 0.00 | 42 | 1010.5 |
| 20260507224316 | 13 | 284 | 12.9 | 22.5 | 0.00 | 0.00 | 0.00 | 42 | 1010.5 |
| 20260507224001 | 13 | 285 | 14.5 | 24.1 | 0.00 | 0.00 | 0.00 | 42 | 1010.6 |
| 20260507223816 | 13 | 284 | 14.5 | 24.1 | 0.00 | 0.00 | 0.00 | 42 | 1010.6 |
| 20260507223502 | 13 | 281 | 16.1 | 33.8 | 0.00 | 0.00 | 0.00 | 42 | 1010.5 |
| 20260507223316 | 13 | 282 | 16.1 | 33.8 | 0.00 | 0.00 | 0.00 | 42 | 1010.6 |
| 20260507223001 | 13 | 281 | 16.1 | 33.8 | 0.00 | 0.00 | 0.00 | 43 | 1010.6 |
| 20260507222816 | 13 | 280 | 14.5 | 33.8 | 0.00 | 0.00 | 0.00 | 46 | 1010.6 |
| 20260507222501 | 13 | 279 | 14.5 | 30.6 | 0.00 | 0.00 | 0.00 | 45 | 1010.7 |
| 20260507222316 | 13 | 277 | 12.9 | 30.6 | 0.00 | 0.00 | 0.00 | 41 | 1010.6 |
| 20260507222002 | 13 | 281 | 11.3 | 27.4 | 0.00 | 0.00 | 0.00 | 42 | 1010.6 |
| 20260507221816 | 13 | 285 | 11.3 | 22.5 | 0.00 | 0.00 | 0.00 | 42 | 1010.5 |
| 20260507221501 | 13 | 288 | 11.3 | 25.7 | 0.00 | 0.00 | 0.00 | 42 | 1010.5 |
| 20260507221316 | 13 | 287 | 12.9 | 25.7 | 0.00 | 0.00 | 0.00 | 40 | 1010.6 |
| 20260507221001 | 13 | 285 | 14.5 | 29.0 | 0.00 | 0.00 | 0.00 | 41 | 1010.4 |
| 20260507220816 | 13 | 291 | 16.1 | 32.2 | 0.00 | 0.00 | 0.00 | 41 | 1010.5 |